Location: Hurstbourne Priors
(51.2000°N, 1.3667°W)
Time: 21:41:21
(UTC+00:00)

Altair - Pass Details

Date: 20 April 2021
Orbit: 1501 x 1683 km, 47.2° (Epoch: 13 May)

Event Time Altitude Azimuth Distance (km) Brightness Sun altitude
Rises 04:57:18 0° 207° (SSW) 4,886 9.7 -1.2°
Reaches altitude 10° 05:00:54 10° 198° (SSW) 3,880 9.3 -0.6°
Maximum altitude 05:09:15 33° 140° (SE) 2,480 8.9 0.6°
Drops below altitude 10° 05:17:21 10° 82° (E) 3,769 11.8 1.8°
Sets 05:20:46 0° 73° (ENE) 4,729 13.9 2.3°
